Location: Cerda�ola
(41.4919°N, 2.1403°E)
Time: 18:54:16
(UTC+00:00)

Lacrosse 4 Rocket - Pass Details

Date: 11 August 2020
Orbit: 544 x 615 km, 68.0° (Epoch: 01 October)

Event Time Altitude Azimuth Distance (km) Brightness Sun altitude
Exits shadow 22:57:43 19° 20° (NNE) 1,378 3.8 -32.0°
Drops below altitude 10° 22:59:00 10° 23° (NNE) 1,876 4.6 -32.1°
Sets 23:01:13 0° 26° (NNE) 2,765 5.5 -32.2°
